GW2927 Weather Reports


time (UTC)temp
F
wind
direction
speed
knots
gust
knots
rain 1hr
in
rain 24hr
in
rain mn
in
humidity
%
barometer
mb
20260505101915 60 152 1.7 2.6 0.00 0.00 0.00 99 1006.2
20260505101409 60 172 1.7 1.7 0.00 0.00 0.00 99 1006.0
20260505100905 60 136 1.7 1.7 0.00 0.00 0.00 99 1006.5
20260505100402 60 164 1.7 1.7 0.00 0.00 0.00 99 1006.4
20260505095857 60 169 2.6 2.6 0.00 0.00 0.00 99 1006.4
20260505095355 60 145 1.7 1.7 0.00 0.00 0.00 99 1006.6
20260505094851 60 210 2.6 2.6 0.00 0.00 0.00 99 1006.7
20260505094348 60 290 0.0 0.0 0.00 0.00 0.00 99 1006.6
20260505093843 60 6 0.0 0.0 0.00 0.00 0.00 99 1006.8
20260505093341 60 91 0.0 0.0 0.00 0.00 0.00 99 1006.9
20260505092838 60 135 0.0 0.0 0.00 0.00 0.00 99 1006.8
20260505092336 60 274 0.0 0.0 0.00 0.00 0.00 99 1007.1
20260505091833 60 193 0.9 1.7 0.00 0.00 0.00 99 1006.6
20260505091331 60 18 0.0 0.0 0.00 0.00 0.00 99 1006.7
20260505090829 60 119 0.0 0.0 0.00 0.00 0.00 99 1006.9
20260505090327 60 187 2.6 2.6 0.00 0.00 0.00 99 1006.8
20260505085824 60 333 0.0 0.0 0.00 0.00 0.00 99 1006.6
20260505085322 60 230 0.0 0.0 0.00 0.00 0.00 99 1006.7
20260505084819 60 165 1.7 1.7 0.00 0.00 0.00 99 1007.0
20260505084318 60 355 0.9 0.9 0.00 0.00 0.00 99 1007.4
20260505083814 60 275 0.9 0.9 0.00 0.00 0.00 99 1006.9
20260505083312 60 331 0.0 0.0 0.00 0.00 0.00 99 1007.0
20260505082808 60 168 0.0 0.0 0.00 0.00 0.00 99 1006.9
20260505082305 60 265 1.7 1.7 0.00 0.00 0.00 99 1007.9
20260505081802 59 18 0.9 1.7 0.00 0.00 0.00 99 1007.4
20260505081258 59 336 0.9 0.9 0.00 0.00 0.00 99 1007.5
20260505080755 59 241 0.9 1.7 0.00 0.00 0.00 99 1006.0
20260505080250 59 132 1.7 1.7 0.00 0.00 0.00 99 1006.9
20260505075746 59 328 6.1 8.7 0.00 0.00 0.00 99 1007.5
20260505075244 59 196 1.7 1.7 0.00 0.00 0.00 99 1005.7
20260505074741 59 297 0.0 0.9 0.00 0.00 0.00 99 1007.6
20260505074238 59 289 1.7 1.7 0.00 0.00 0.00 99 1007.1
20260505073736 59 350 0.0 0.0 0.00 0.00 0.00 99 1006.8
20260505073233 59 163 0.0 0.0 0.00 0.00 0.00 99 1007.5
20260505072730 59 298 0.0 0.0 0.00 0.00 0.00 99 1007.5
20260505072226 60 316 0.0 0.0 0.00 0.00 0.00 99 1007.6
20260505071721 60 90 0.0 0.0 0.00 0.00 0.00 99 1008.4
20260505071219 60 217 2.6 2.6 0.00 0.00 0.00 98 1007.9
20260505070716 61 37 2.6 6.1 0.00 0.00 0.00 98 1008.4
20260505070212 61 350 7.8 11.3 0.00 0.00 0.00 98 1008.4
20260505065708 61 128 0.9 0.9 0.00 0.00 0.00 97 1007.5
20260505065205 61 241 2.6 2.6 0.00 0.00 0.00 97 1007.7
20260505064702 61 295 0.9 0.9 0.00 0.00 0.00 97 1007.5
20260505064200 61 336 1.7 1.7 0.00 0.00 0.00 96 1007.9
20260505063657 61 346 0.9 0.9 0.00 0.00 0.00 96 1007.0
20260505063153 61 34 0.0 0.0 0.00 0.00 0.00 96 1006.0
20260505062649 62 93 0.0 0.0 0.00 0.00 0.00 96 1006.5
20260505062147 62 131 1.7 1.7 0.00 0.00 0.00 95 1006.9
20260505061644 62 335 0.0 0.0 0.00 0.00 0.00 94 1007.5
20260505061143 62 302 0.9 0.9 0.00 0.00 0.00 94 1007.0
20260505060640 62 138 0.9 0.9 0.00 0.00 0.00 94 1006.4
20260505060136 62 144 0.9 1.7 0.00 0.00 0.00 92 1006.9
20260505055631 63 197 0.0 0.9 0.00 0.00 0.00 91 1007.2
20260505055128 63 200 0.9 0.9 0.00 0.00 0.00 90 1006.6
20260505054626 64 124 0.9 0.9 0.00 0.00 0.00 88 1007.3
20260505054124 64 62 0.0 0.0 0.00 0.00 0.00 86 1007.6
20260505053621 64 65 0.0 0.9 0.00 0.00 0.00 85 1007.8
20260505053117 64 112 0.9 0.9 0.00 0.00 0.00 84 1007.4
20260505052614 64 88 0.0 0.0 0.00 0.00 0.00 84 1007.5
20260505052112 64 109 0.9 0.9 0.00 0.00 0.00 84 1007.3
20260505051608 64 230 1.7 2.6 0.00 0.00 0.00 84 1007.5
20260505051107 64 18 0.0 0.0 0.00 0.00 0.00 85 1007.3
20260505050604 64 149 0.9 1.7 0.00 0.00 0.00 84 1007.0
20260505041532 60 137 0.9 1.7 0.00 0.00 0.00 92 1006.8
20260505041030 60 131 1.7 1.7 0.00 0.00 0.00 92 1007.2
20260505040527 60 130 1.7 1.7 0.00 0.00 0.00 92 1006.9
20260505040024 60 125 1.7 1.7 0.00 0.00 0.00 92 1007.2
20260505035520 60 138 1.7 1.7 0.00 0.00 0.00 92 1007.3
20260505035017 60 123 0.9 0.9 0.00 0.00 0.00 92 1007.2
20260505034513 60 119 0.9 0.9 0.00 0.00 0.00 92 1007.2
20260505034010 60 127 0.9 0.9 0.00 0.00 0.00 92 1007.3
20260505033507 60 156 1.7 1.7 0.00 0.00 0.00 91 1007.3
20260505033005 60 147 0.9 0.9 0.00 0.00 0.00 91 1007.5
20260505032502 60 142 0.0 0.9 0.00 0.00 0.00 91 1007.5
20260505031959 60 156 1.7 1.7 0.00 0.00 0.00 91 1007.4
20260505031455 60 160 2.6 2.6 0.00 0.00 0.00 90 1007.4
20260505030952 61 164 1.7 1.7 0.00 0.00 0.00 90 1007.4
20260505030449 61 159 1.7 1.7 0.00 0.00 0.00 90 1007.4
20260505025944 61 155 2.6 2.6 0.00 0.00 0.00 89 1007.5
20260505025441 61 161 1.7 1.7 0.00 0.00 0.00 89 1007.5
20260505024940 61 148 0.9 1.7 0.00 0.00 0.00 89 1007.7
20260505024437 61 156 2.6 2.6 0.00 0.00 0.00 88 1007.7
20260505023934 61 152 1.7 1.7 0.00 0.00 0.00 88 1007.5
20260505023431 62 167 1.7 1.7 0.00 0.00 0.00 87 1007.3
20260505022928 62 147 0.9 1.7 0.00 0.00 0.00 87 1007.3
20260505022426 62 164 1.7 1.7 0.00 0.00 0.00 86 1007.3
20260505021923 62 158 1.7 1.7 0.00 0.00 0.00 86 1007.2
20260505021419 63 153 0.9 1.7 0.00 0.00 0.00 85 1007.4
20260505020915 63 164 1.7 1.7 0.00 0.00 0.00 84 1007.3
20260505020410 63 171 1.7 1.7 0.00 0.00 0.00 83 1007.3
20260505015908 64 157 0.9 0.9 0.00 0.00 0.00 82 1007.2
20260505015405 64 160 0.9 0.9 0.00 0.00 0.00 81 1007.2
20260505014902 64 139 0.9 0.9 0.00 0.00 0.00 80 1007.2
20260505014359 65 161 0.9 0.9 0.00 0.00 0.00 79 1007.0
20260505013855 65 157 0.9 1.7 0.00 0.00 0.00 78 1006.9
20260505013353 66 158 1.7 1.7 0.00 0.00 0.00 78 1007.0
20260505012851 66 234 0.9 0.9 0.00 0.00 0.00 77 1007.0
20260505012349 67 266 0.9 0.9 0.00 0.00 0.00 76 1006.9
20260505011844 67 244 0.9 0.9 0.00 0.00 0.00 75 1006.9
20260505011341 68 311 0.0 0.9 0.00 0.00 0.00 74 1006.8
20260505010837 68 52 0.9 0.9 0.00 0.00 0.00 73 1006.8
20260505010333 69 84 0.0 0.9 0.00 0.00 0.00 71 1006.7
20260505005830 70 71 0.9 0.9 0.00 0.00 0.00 69 1006.6
20260505005327 70 104 1.7 1.7 0.00 0.00 0.00 67 1006.7
20260505004825 71 80 0.9 0.9 0.00 0.00 0.00 68 1006.4
20260505004320 71 84 1.7 1.7 0.00 0.00 0.00 67 1006.5
20260505003818 72 71 1.7 1.7 0.00 0.00 0.00 65 1006.7
20260505003315 72 141 2.6 2.6 0.00 0.00 0.00 63 1006.5
20260505002811 72 92 0.9 1.7 0.00 0.00 0.00 63 1006.4
20260505002308 73 145 5.2 6.1 0.00 0.00 0.00 62 1006.8
20260505001807 73 68 0.9 0.9 0.00 0.00 0.00 61 1006.6
20260505001303 73 60 2.6 2.6 0.00 0.00 0.00 61 1006.8
20260505000800 74 129 2.6 2.6 0.00 0.00 0.00 62 1006.8
20260505000258 74 119 2.6 2.6 0.00 0.00 0.00 61 1006.6
20260504235754 74 106 4.3 6.1 0.00 0.00 0.00 62 1006.6
20260504235251 75 94 0.9 1.7 0.00 0.00 0.00 60 1006.3
20260504234748 75 174 2.6 4.3 0.00 0.00 0.00 60 1006.5
20260504234246 75 87 3.5 6.1 0.00 0.00 0.00 58 1006.5
20260504233742 76 73 0.9 1.7 0.00 0.00 0.00 57 1006.6
20260504233237 76 92 2.6 4.3 0.00 0.00 0.00 58 1006.5
20260504232735 77 97 1.7 2.6 0.00 0.00 0.00 55 1006.4
20260504232232 77 99 4.3 5.2 0.00 0.00 0.00 56 1006.7
20260504231728 77 48 2.6 2.6 0.00 0.00 0.00 57 1006.4
20260504231225 77 138 3.5 5.2 0.00 0.00 0.00 56 1006.6
20260504230721 78 107 1.7 1.7 0.00 0.00 0.00 55 1006.3
20260504230220 78 110 1.7 1.7 0.00 0.00 0.00 56 1006.6
20260504225718 79 165 0.9 1.7 0.00 0.00 0.00 55 1006.4
20260504225214 79 168 7.8 12.2 0.00 0.00 0.00 52 1006.4
20260504224711 79 153 0.9 0.9 0.00 0.00 0.00 54 1006.2
20260504224209 79 116 3.5 4.3 0.00 0.00 0.00 54 1006.3
20260504223705 78 170 2.6 4.3 0.00 0.00 0.00 53 1006.2
20260504223200 79 221 3.5 4.3 0.00 0.00 0.00 52 1006.4
20260504222658 79 100 1.7 1.7 0.00 0.00 0.00 55 1006.5
20260504222154 79 97 3.5 4.3 0.00 0.00 0.00 52 1006.3
20260504221652 79 99 2.6 2.6 0.00 0.00 0.00 54 1006.3
20260504221149 79 127 5.2 6.1 0.00 0.00 0.00 53 1006.3
20260504220645 79 129 1.7 2.6 0.00 0.00 0.00 54 1006.4
20260504220143 79 122 1.7 2.6 0.00 0.00 0.00 54 1006.4
20260504215639 79 132 2.6 2.6 0.00 0.00 0.00 53 1006.5
20260504215136 79 239 0.9 0.9 0.00 0.00 0.00 56 1006.6
20260504214632 79 98 2.6 4.3 0.00 0.00 0.00 55 1006.4
20260504214130 79 191 5.2 7.0 0.00 0.00 0.00 53 1006.7
20260504213625 80 158 8.7 9.6 0.00 0.00 0.00 51 1006.5
20260504213122 80 147 3.5 5.2 0.00 0.00 0.00 51 1006.8
20260504212618 80 74 2.6 2.6 0.00 0.00 0.00 53 1006.5
20260504212115 80 102 2.6 2.6 0.00 0.00 0.00 52 1007.0
20260504211613 81 185 4.3 7.0 0.00 0.00 0.00 53 1006.7
20260504211109 81 150 2.6 4.3 0.00 0.00 0.00 51 1006.9
20260504210607 80 108 2.6 4.3 0.00 0.00 0.00 51 1007.0
20260504205601 80 193 7.0 8.7 0.00 0.00 0.00 51 1007.2
20260504205058 80 182 4.3 7.0 0.00 0.00 0.00 51 1007.1
20260504204556 80 114 2.6 4.3 0.00 0.00 0.00 52 1007.5
20260504204055 79 134 2.6 2.6 0.00 0.00 0.00 53 1007.4
20260504203553 80 123 6.1 7.8 0.00 0.00 0.00 53 1007.4
20260504203050 80 157 7.8 12.2 0.00 0.00 0.00 50 1007.6
20260504202545 80 69 3.5 5.2 0.00 0.00 0.00 51 1007.7
20260504202042 80 166 7.0 9.6 0.00 0.00 0.00 50 1007.6
20260504201539 80 74 3.5 4.3 0.00 0.00 0.00 52 1007.6
20260504201037 80 126 6.1 7.8 0.00 0.00 0.00 52 1007.5
20260504200533 80 108 4.3 9.6 0.00 0.00 0.00 52 1007.7
20260504200030 78 203 6.1 8.7 0.00 0.00 0.00 52 1007.7
20260504195526 79 164 11.3 13.9 0.00 0.00 0.00 52 1007.6
20260504195023 80 93 1.7 2.6 0.00 0.00 0.00 52 1007.8
20260504194520 79 190 4.3 6.1 0.00 0.00 0.00 53 1007.8
20260504194015 79 113 5.2 7.8 0.00 0.00 0.00 52 1007.7
20260504193512 79 96 3.5 6.1 0.00 0.00 0.00 55 1007.6
20260504193011 79 142 11.3 17.4 0.00 0.00 0.00 53 1008.0
20260504192509 79 229 4.3 6.1 0.00 0.00 0.00 54 1007.9
20260504192007 80 96 3.5 5.2 0.00 0.00 0.00 54 1008.2
20260504191504 80 123 6.1 11.3 0.00 0.00 0.00 54 1008.0
20260504191000 79 186 6.1 7.8 0.00 0.00 0.00 56 1007.9
20260504190455 79 134 7.0 7.8 0.00 0.00 0.00 54 1007.6
20260504185952 79 146 7.8 11.3 0.00 0.00 0.00 54 1008.0
20260504185449 79 214 5.2 6.1 0.00 0.00 0.00 54 1008.1
20260504184945 79 126 5.2 7.0 0.00 0.00 0.00 54 1008.3
20260504184441 79 118 7.0 9.6 0.00 0.00 0.00 54 1008.1
20260504183937 79 175 7.0 8.7 0.00 0.00 0.00 55 1008.2
20260504183434 78 150 2.6 2.6 0.00 0.00 0.00 55 1008.3
20260504182933 78 61 6.1 7.8 0.00 0.00 0.00 52 1008.4
20260504182429 78 102 8.7 11.3 0.00 0.00 0.00 52 1008.3
20260504181926 79 177 2.6 4.3 0.00 0.00 0.00 53 1008.4
20260504181423 78 167 1.7 1.7 0.00 0.00 0.00 58 1008.4
20260504180922 78 182 2.6 4.3 0.00 0.00 0.00 54 1008.8
20260504180421 78 93 4.3 7.0 0.00 0.00 0.00 52 1008.7
20260504175918 78 166 4.3 6.1 0.00 0.00 0.00 55 1008.7
20260504175415 78 95 3.5 5.2 0.00 0.00 0.00 54 1009.0
20260504174913 78 221 4.3 6.1 0.00 0.00 0.00 52 1008.7
20260504174410 77 93 2.6 5.2 0.00 0.00 0.00 56 1009.0
20260504173907 77 125 7.8 9.6 0.00 0.00 0.00 53 1008.9
20260504173403 78 156 5.2 7.8 0.00 0.00 0.00 54 1008.9
20260504172901 77 128 4.3 7.0 0.00 0.00 0.00 52 1009.1
20260504172357 76 112 2.6 4.3 0.00 0.00 0.00 55 1009.2
20260504171853 76 9 7.0 11.3 0.00 0.00 0.00 55 1009.5
20260504171351 76 215 4.3 7.8 0.00 0.00 0.00 53 1009.2
20260504170848 76 151 6.1 11.3 0.00 0.00 0.00 53 1009.5
20260504170344 75 119 7.0 7.8 0.00 0.00 0.00 54 1009.2
20260504160303 74 122 1.7 4.3 0.00 0.00 0.00 55 1009.6
20260504150728 71 174 7.8 11.3 0.00 0.00 0.00 55 1009.9
20260504150225 71 60 7.0 8.7 0.00 0.00 0.00 55 1010.0
20260504141154 69 135 4.3 5.2 0.00 0.00 0.00 57 1010.6
20260504140651 69 34 8.7 12.2 0.00 0.00 0.00 58 1010.8
20260504140146 68 132 4.3 6.1 0.00 0.00 0.00 60 1010.7
20260504130615 64 72 2.6 2.6 0.00 0.00 0.00 65 1011.3
20260504130112 64 167 3.5 6.1 0.00 0.00 0.00 65 1011.1
20260504110503 61 100 2.6 2.6 0.00 0.00 0.00 67 1010.9